Weather History for Wausau, WI

Change the Weather History Date:

Wednesday, February 20, 2013

  Actual Average Record
Temperature  
Mean Temperature 12 °F 21 °F  
Max Temperature 23 °F 30 °F 53 °F (1930)
Min Temperature 1 °F 12 °F -27 °F (1929)
Degree Days  
Heating Degree Days 53 44  
Month to date heating degree days 1004 942  
Since 1 July heating degree days 5500 5792  
Cooling Degree Days 0 0  
Month to date cooling degree days 0 0  
Year to date cooling degree days 0 0  
Moisture  
Dew Point 1 °F    
Average Humidity 66    
Maximum Humidity 87    
Minimum Humidity 45    
Precipitation  
Precipitation 0.00 in 0.04 in 0.83 in (1954)
Month to date precipitation 1.09 0.61  
Year to date precipitation 2.77 1.63  
Snow  
Snow 0.00 in 0.40 in 8.70 in (2011)
Month to date snowfall 10.1 6.8  
Since 1 July snowfall 50.6 42.5  
Snow Depth 12.00 in    
Sea Level Pressure  
Sea Level Pressure 30.35 in    
Wind  
Wind Speed 9 mph (NNW)    
Max Wind Speed 17 mph    
Max Gust Speed 23 mph    
Visibility 10 miles    
Events      
T = Trace of Precipitation, MM = Missing Value Source: NWS Daily Summary

Daily Weather History Graph

Daily Weather History Graph

Search for Another Location

Airport:

Trip Planner

Search our weather history database for the weather conditions in past years. The results will help you decide how hot, cold, wet, or windy it might be!

Date:

Astronomy

Feb. 20, 2013 Rise Set
Actual Time 6:50 AM CST 5:34 PM CST
Civil Twilight 6:21 AM CST 6:03 PM CST
Nautical Twilight 5:47 AM CST 6:38 PM CST
Astronomical Twilight 5:13 AM CST 7:11 PM CST
Moon 12:47 PM CST (2/20) 3:19 AM CST (2/20)
Length of Visible Light 11h 42m
Length of Day
10h 43m
Waxing Gibbous, 76% of the Moon is Illuminated
Feb 20
Waxing Gibbous
Feb 25
Full
Mar 4
Last Quarter
Mar 11
New
Mar 19
First Quarter

Hourly Weather History & Observations

Time (CST) Temp. Windchill Dew Point Humidity Pressure Visibility Wind Dir Wind Speed Gust Speed Precip Events Conditions
12:54 AM 5.0 °F -8.1 °F -2.9 °F 70% 30.21 in 10.0 mi NNW 8.1 mph - N/A   Clear
1:54 AM 6.1 °F -7.8 °F -2.0 °F 69% 30.23 in 10.0 mi NW 9.2 mph - N/A   Clear
2:54 AM 5.0 °F -9.1 °F -2.0 °F 73% 30.26 in 10.0 mi NW 9.2 mph - N/A   Clear
3:16 AM 5.0 °F -10.8 °F -2.2 °F 72% 30.17 in 10.0 mi NW 11.5 mph - N/A   Mostly Cloudy
3:54 AM 3.9 °F -12.2 °F -2.0 °F 76% 30.29 in 10.0 mi WNW 11.5 mph - N/A   Overcast
4:54 AM 3.9 °F -10.4 °F -2.0 °F 76% 30.31 in 10.0 mi WNW 9.2 mph - N/A   Overcast
5:29 AM 3.2 °F -10.3 °F -2.2 °F 78% 30.21 in 10.0 mi NW 8.1 mph - N/A   Scattered Clouds
5:54 AM 1.9 °F -11.8 °F -2.9 °F 80% 30.33 in 10.0 mi WNW 8.1 mph - N/A   Clear
6:54 AM 1.9 °F -12.9 °F -2.0 °F 83% 30.35 in 10.0 mi NW 9.2 mph - N/A   Clear
7:54 AM 5.0 °F -6.9 °F -0.9 °F 76% 30.35 in 10.0 mi WNW 6.9 mph - N/A   Clear
8:54 AM 12.9 °F -1.6 °F 1.9 °F 62% 30.35 in 10.0 mi NNW 12.7 mph 21.9 mph N/A   Clear
9:54 AM 15.1 °F 1.1 °F 3.0 °F 59% 30.36 in 10.0 mi North 12.7 mph - N/A   Clear
10:54 AM 17.1 °F 6.6 °F 3.9 °F 56% 30.37 in 10.0 mi NNW 8.1 mph 16.1 mph N/A   Clear
11:54 AM 19.0 °F 9.0 °F 5.0 °F 54% 30.37 in 10.0 mi North 8.1 mph - N/A   Clear
12:54 PM 21.0 °F 9.9 °F 5.0 °F 50% 30.36 in 10.0 mi North 10.4 mph - N/A   Clear
1:54 PM 21.9 °F 10.4 °F 5.0 °F 48% 30.35 in 10.0 mi North 11.5 mph 16.1 mph N/A   Clear
2:54 PM 21.9 °F 11.7 °F 5.0 °F 48% 30.39 in 10.0 mi WNW 9.2 mph - N/A   Clear
3:54 PM 23.0 °F 14.7 °F 5.0 °F 46% 30.40 in 10.0 mi NNW 6.9 mph - N/A   Clear
4:54 PM 21.9 °F 11.7 °F 5.0 °F 48% 30.41 in 10.0 mi NNW 9.2 mph - N/A   Clear
5:54 PM 19.0 °F 11.1 °F 3.9 °F 52% 30.42 in 10.0 mi North 5.8 mph - N/A   Clear
6:54 PM 18.0 °F 6.9 °F 3.9 °F 54% 30.43 in 10.0 mi North 9.2 mph - N/A   Clear
7:54 PM 16.0 °F 5.3 °F 5.0 °F 62% 30.42 in 10.0 mi North 8.1 mph - N/A   Clear
8:54 PM 14.0 °F 2.9 °F 3.9 °F 64% 30.42 in 10.0 mi North 8.1 mph - N/A   Clear
9:54 PM 10.9 °F -1.8 °F 3.0 °F 70% 30.43 in 10.0 mi NNE 9.2 mph - N/A   Clear
10:54 PM 10.0 °F 1.8 °F 1.0 °F 67% 30.42 in 10.0 mi NNE 4.6 mph - N/A   Clear
11:54 PM 9.0 °F - -0.0 °F 67% 30.43 in 10.0 mi Calm Calm - N/A   Clear